Regional Weather Roundup
Issued by NWS

Home | Current Version | Previous Version | Text Only | Print | Product List | Glossary On
Versions: 1 2 3 4 5 6 7 8 9 10 11 12 13 14 15 16 17 18 19 20 21 22 23 24 25 26 27 28 29 30 31 32 33 34 35 36 37 38 39 40 41 42 43 44 45 46 47 48 49 50
000
ASUS43 KLSX 191307
RWRMO

WEATHER SUMMARY FOR MISSOURI
NATIONAL WEATHER SERVICE SPRINGFIELD MO
700 AM CST SUN NOV 19 2017

NOTE: "FAIR" INDICATES FEW OR NO CLOUDS BELOW 12,000 FEET WITH NO
       SIGNIFICANT WEATHER AND/OR OBSTRUCTIONS TO VISIBILITY.
       CURRENT SKY AND/OR WEATHER CONDITIONS ARE NOT AVAILABLE FOR
       CHILLICOTHE AND FARMINGTON.

MOZ001>031-035>038-043-044-053-054-191400-
...NORTHERN AND WESTERN MISSOURI...

CITY           SKY/WX    TMP DP  RH WIND       PRES   REMARKS
KANSAS CTY INT CLEAR     27  22  81 W6        30.24F WCI  20
KANSAS C DTWN  CLEAR     32  22  66 CALM      30.26S
LEE`S SUMMIT   CLEAR     31  22  69 NW3       30.25F
ST JOSEPH      CLEAR     24  20  84 SW3       30.25S
CHILLICOTHE      N/A     27  19  72 CALM      30.25R
KIRKSVILLE     CLEAR     25  18  74 NW8       30.19S WCI  16

$$
MOZ066>068-077>081-088>096-101>105-191400-
...SOUTHWEST MISSOURI...

CITY           SKY/WX    TMP DP  RH WIND       PRES   REMARKS
SPRINGFIELD    CLEAR     31  27  85 NW5       30.24R WCI  26
JOPLIN         CLEAR     30  28  92 CALM      30.30R
BRANSON        CLEAR     32  27  80 NW5       30.26R WCI  27

$$
MOZ032>034-039>042-045>050-055>058-069>072-191400-
...CENTRAL MISSOURI...

CITY           SKY/WX    TMP DP  RH WIND       PRES   REMARKS
COLUMBIA       CLEAR     29  20  69 NW12      30.21R WCI  19
JEFFERSON CITY CLEAR     30  22  72 NW7       30.24R WCI  23
ROLLA          CLEAR     29  21  72 NW13G20   30.19R WCI  19
SEDALIA        CLEAR     31  23  72 NW10      30.26R WCI  22
WHITEMAN AFB   CLEAR     30  20  68 NW8       30.22R WCI  22
WARRENSBURG    CLEAR     30  23  74 NW5       30.26S WCI  25
OSAGE BEACH    PTCLDY    32  20  61 NW8       30.24R WCI  25

$$
MOZ051-052-059>065-191400-
...EAST CENTRAL MISSOURI...

CITY           SKY/WX    TMP DP  RH WIND       PRES   REMARKS
ST LOUIS INTL  PTCLDY    31  22  69 W14G20    30.16R WCI  21
SPIRIT OF STL  CLEAR     31  23  72 W9        30.18R WCI  23
ST CHARLES     CLEAR     31  22  69 NW13      30.17R WCI  21

$$
MOZ072>076-082>087-097>100-106>115-191400-
...SOUTH CENTRAL AND SOUTHEAST MISSOURI...

CITY           SKY/WX    TMP DP  RH WIND       PRES   REMARKS
CAPE GIRARDEAU CLEAR     34  25  69 NW6       30.17R WCI  29
FARMINGTON     CLEAR     31  24  75 W7        30.16R WCI  24
POPLAR BLUFF   PTCLDY    35  25  66 NW5       30.19R
WEST PLAINS    CLEAR     32  19  58 NW7       30.20R WCI  26

$$



USA.gov is the U.S. government's official web portal to all federal, state and local government web resources and services.